This is the latest recevied weather packets stored in our database for station/object VY2CRA-4. If no packets are shown the sender has not sent any weather packets the latest 10 day(s).
| Time | Temp. | Humidity | Pressure | Rain* | Wind** | Luminosity | Snow |
|---|---|---|---|---|---|---|---|
| 1787862111 | 34.44° C | 6% | 1014.5 hPa | 0 mm | - | - | - |
| 1787856107 | 32.78° C | 11% | 1014.9 hPa | 0 mm | - | - | - |
| 1787854906 | 32.78° C | 9% | 1015.1 hPa | 0 mm | - | - | - |
| 1787852504 | 33.33° C | 9% | 1015.2 hPa | 0 mm | - | - | - |
| 1787851303 | 33.33° C | 9% | 1015.3 hPa | 0 mm | - | - | - |
| 1787850102 | 33.33° C | 11% | 1015.4 hPa | 0 mm | - | - | - |
| 1787848901 | 33.33° C | 9% | 1015.5 hPa | 0 mm | - | - | - |
| 1787847700 | 33.89° C | 5% | 1015.5 hPa | 0 mm | - | - | - |
| 1787846499 | 34.44° C | 6% | 1015.6 hPa | 0 mm | - | - | - |
| 1787845298 | 35° C | 5% | 1015.8 hPa | 0 mm | - | - | - |
| 1787840494 | 36.67° C | 2% | 1015.8 hPa | 0 mm | - | - | - |
| 1787839294 | 36.67° C | 4% | 1015.8 hPa | 0 mm | - | - | - |
| 1787838094 | 36.11° C | 5% | 1015.8 hPa | 0 mm | - | - | - |
| 1787836892 | 35.56° C | 8% | 1015.8 hPa | 0 mm | - | - | - |
| 1787835692 | 34.44° C | 10% | 1015.7 hPa | 0 mm | - | - | - |
| 1787829686 | 27.78° C | 36% | 1015.4 hPa | 0 mm | - | - | - |
| 1787828485 | 25.56° C | 45% | 1015.3 hPa | 0 mm | - | - | - |
| 1787823682 | 20° C | 50% | 1014.8 hPa | 0 mm | - | - | - |
| 1787822481 | 20° C | 49% | 1014.7 hPa | 0 mm | - | - | - |
| 1787821279 | 20.56° C | 49% | 1014.6 hPa | 0 mm | - | - | - |
| 1787820079 | 20.56° C | 49% | 1014.5 hPa | 0 mm | - | - | - |
| 1787818877 | 20.56° C | 49% | 1014.5 hPa | 0 mm | - | - | - |
| 1787817677 | 20.56° C | 48% | 1014.2 hPa | 0 mm | - | - | - |
| 1787816476 | 20.56° C | 48% | 1014.3 hPa | 0 mm | - | - | - |
| 1787815275 | 20.56° C | 48% | 1014.2 hPa | 0 mm | - | - | - |
* Rain since midnight (hover to see other rain measurements)
** Current wind speed in m/s (hover to see current wind gust speed)